Port Heiden, AK

5:15 PM AKST on January 22, 2018 (GMT -0900)
Port Heiden

Weather History for PAPH - July, 2013

Change the Weather History Date:

Monday, July 8, 2013

  Actual Average Record
Temperature  
Mean Temperature 45 °F -  
Max Temperature 48 °F 55 °F 140 °F (1996)
Min Temperature 42 °F 44 °F 37 °F (2010)
Degree Days  
Heating Degree Days 20    
Moisture  
Dew Point 38 °F    
Average Humidity 78    
Maximum Humidity 82    
Minimum Humidity 66    
Precipitation  
Precipitation 0.04 in - - ()
Sea Level Pressure  
Sea Level Pressure 29.97 in    
Wind  
Wind Speed 17 mph (WSW)    
Max Wind Speed 25 mph    
Max Gust Speed 32 mph    
Visibility 9 miles    
Events      
Averages and records for this station are not official NWS values.
T = Trace of Precipitation, MM = Missing Value Source: NWS Daily Summary

Daily Weather History Graph

Daily Weather History Graph

Search for Another Location

Airport or City:

Trip Planner

Search our weather history database for the weather conditions in past years. The results will help you decide how hot, cold, wet, or windy it might be!

Date:

Astronomy

Jul. 08, 2013 Rise Set
Actual Time 5:53 AM AKDT 11:24 PM AKDT
Civil Twilight 4:50 AM AKDT 12:27 AM AKDT
Nautical Twilight 3:12 AM AKDT 2:07 AM AKDT
Astronomical Twilight Sun does not rise Sun does not rise
Moon 6:57 AM AKDT (7/8) 11:03 PM AKDT (7/8)
Length of Visible Light 19h 37m
Length of Day
17h 31m
New Moon, 0% of the Moon is Illuminated
Jul 8
New Moon
Jul 15
First Quarter
Jul 22
Full
Jul 29
Last Quarter
Aug 6
New

Hourly Weather History & Observations

Time (AKDT) Temp. Windchill Dew Point Humidity Pressure Visibility Wind Dir Wind Speed Gust Speed Precip Events Conditions
12:16 AM 44.6 °F 36.4 °F 37.4 °F 76% 29.92 in 10.0 mi West 20.7 mph 29.9 mph N/A   Overcast
12:36 AM 44.6 °F 35.7 °F 37.4 °F 76% 29.92 in 10.0 mi West 24.2 mph 31.1 mph N/A   Overcast
12:56 AM 44.6 °F 35.9 °F 37.4 °F 76% 29.92 in 10.0 mi West 23.0 mph 29.9 mph N/A   Overcast
1:16 AM 44.6 °F 36.4 °F 37.4 °F 76% 29.93 in 10.0 mi West 20.7 mph 29.9 mph N/A   Overcast
1:36 AM 42.8 °F 33.1 °F 37.4 °F 81% 29.93 in 10.0 mi WSW 25.3 mph 32.2 mph N/A   Overcast
1:56 AM 42.8 °F 33.5 °F 37.4 °F 81% 29.94 in 10.0 mi WSW 23.0 mph 29.9 mph N/A   Overcast
2:16 AM 42.8 °F 33.5 °F 35.6 °F 76% 29.94 in 10.0 mi WSW 23.0 mph 32.2 mph N/A   Overcast
2:36 AM 42.8 °F 33.8 °F 37.4 °F 81% 29.95 in 10.0 mi West 21.9 mph 28.8 mph N/A   Overcast
2:56 AM 42.8 °F 33.8 °F 35.6 °F 76% 29.95 in 10.0 mi West 21.9 mph 28.8 mph N/A   Overcast
3:16 AM 42.8 °F 33.8 °F 37.4 °F 81% 29.96 in 10.0 mi West 21.9 mph 27.6 mph N/A   Overcast
3:36 AM 42.8 °F 34.0 °F 35.6 °F 76% 29.96 in 10.0 mi West 20.7 mph 28.8 mph N/A   Overcast
3:56 AM 42.8 °F 34.3 °F 35.6 °F 76% 29.97 in 10.0 mi WSW 19.6 mph 27.6 mph N/A   Overcast
4:16 AM 42.8 °F 34.3 °F 35.6 °F 76% 29.97 in 10.0 mi West 19.6 mph 25.3 mph N/A   Overcast
4:36 AM 42.8 °F 34.8 °F 35.6 °F 76% 29.98 in 10.0 mi West 17.3 mph 25.3 mph N/A   Overcast
4:56 AM 42.8 °F 34.3 °F 35.6 °F 76% 29.98 in 10.0 mi West 19.6 mph 24.2 mph N/A   Overcast
5:16 AM 42.8 °F 34.0 °F 35.6 °F 76% 29.97 in 8.0 mi WSW 20.7 mph 27.6 mph N/A   Overcast
5:36 AM 42.8 °F 34.3 °F 35.6 °F 76% 29.98 in 10.0 mi WSW 19.6 mph 24.2 mph N/A   Overcast
5:56 AM 42.8 °F 34.3 °F 35.6 °F 76% 29.97 in 7.0 mi WSW 19.6 mph 24.2 mph N/A   Overcast
6:16 AM 42.8 °F 34.8 °F 35.6 °F 76% 29.98 in 8.0 mi WSW 17.3 mph 21.9 mph N/A   Overcast
6:36 AM 42.8 °F 34.8 °F 35.6 °F 76% 29.98 in 10.0 mi WSW 17.3 mph 21.9 mph N/A   Overcast
6:56 AM 42.8 °F 34.8 °F 35.6 °F 76% 29.98 in 9.0 mi WSW 17.3 mph 23.0 mph N/A   Overcast
7:16 AM 42.8 °F 35.1 °F 35.6 °F 76% 29.98 in 10.0 mi WSW 16.1 mph 21.9 mph N/A   Overcast
7:36 AM 42.8 °F 34.5 °F 35.6 °F 76% 29.98 in 10.0 mi West 18.4 mph 24.2 mph N/A   Overcast
7:56 AM 42.8 °F 35.1 °F 35.6 °F 76% 29.98 in 10.0 mi WSW 16.1 mph 25.3 mph N/A   Overcast
8:16 AM 42.8 °F 34.5 °F 35.6 °F 76% 29.98 in 10.0 mi West 18.4 mph 24.2 mph N/A   Overcast
8:36 AM 42.8 °F 35.4 °F 35.6 °F 76% 29.98 in 10.0 mi WSW 15.0 mph 21.9 mph N/A   Overcast
8:56 AM 42.8 °F 34.8 °F 37.4 °F 81% 29.99 in 10.0 mi WSW 17.3 mph 20.7 mph N/A   Overcast
9:16 AM 42.8 °F 35.4 °F 37.4 °F 81% 29.98 in 10.0 mi WSW 15.0 mph - N/A   Overcast
9:36 AM 44.6 °F 38.1 °F 37.4 °F 76% 29.99 in 10.0 mi WSW 13.8 mph 18.4 mph N/A   Overcast
9:56 AM 44.6 °F 37.8 °F 37.4 °F 76% 29.99 in 10.0 mi WSW 15.0 mph - N/A   Overcast
10:16 AM 44.6 °F 38.4 °F 37.4 °F 76% 29.99 in 10.0 mi WSW 12.7 mph 18.4 mph 0.01 in   Overcast
10:36 AM 44.6 °F 38.4 °F 37.4 °F 76% 29.99 in 9.0 mi WSW 12.7 mph 17.3 mph 0.01 in   Overcast
10:56 AM 44.6 °F 37.8 °F 37.4 °F 76% 29.99 in 10.0 mi WSW 15.0 mph - 0.01 in   Overcast
11:16 AM 44.6 °F 38.1 °F 37.4 °F 76% 29.99 in 10.0 mi WSW 13.8 mph 18.4 mph N/A   Overcast
11:36 AM 44.6 °F 37.8 °F 39.2 °F 81% 29.98 in 10.0 mi WSW 15.0 mph - N/A   Overcast
11:56 AM 44.6 °F 38.1 °F 39.2 °F 81% 29.98 in 10.0 mi WSW 13.8 mph - N/A   Overcast
12:16 PM 44.6 °F 38.4 °F 39.2 °F 81% 29.98 in 10.0 mi WSW 12.7 mph - N/A   Overcast
12:36 PM 46.4 °F 40.4 °F 39.2 °F 76% 29.98 in 10.0 mi WSW 13.8 mph - N/A   Overcast
12:56 PM 46.4 °F 40.4 °F 39.2 °F 76% 29.98 in 10.0 mi WSW 13.8 mph - N/A   Overcast
1:16 PM 46.4 °F 42.4 °F 39.2 °F 76% 29.98 in 10.0 mi WSW 8.1 mph - N/A   Overcast
1:36 PM 46.4 °F 41.9 °F 39.2 °F 76% 29.98 in 10.0 mi WSW 9.2 mph - N/A   Overcast
1:56 PM 46.4 °F 41.1 °F 39.2 °F 76% 29.98 in 10.0 mi WSW 11.5 mph - 0.01 in   Overcast
2:16 PM 46.4 °F 41.5 °F 41.0 °F 81% 29.97 in 10.0 mi WSW 10.4 mph - N/A   Overcast
2:36 PM 48.2 °F - 41.0 °F 76% 29.98 in 10.0 mi SW 10.4 mph - N/A   Overcast
2:56 PM 48.2 °F - 42.8 °F 82% 29.98 in 10.0 mi WSW 11.5 mph - 0.01 in   Mostly Cloudy
3:16 PM 48.2 °F - 41.0 °F 76% 29.98 in 10.0 mi SW 9.2 mph - N/A   Overcast
3:36 PM 48.2 °F - 42.8 °F 82% 29.98 in 10.0 mi SW 10.4 mph - N/A   Overcast
3:56 PM 48.2 °F - 41.0 °F 76% 29.98 in 10.0 mi SW 12.7 mph - 0.01 in   Overcast
4:16 PM 48.2 °F - 42.8 °F 82% 29.97 in 10.0 mi SW 10.4 mph - N/A   Overcast
4:36 PM 48.2 °F - 42.8 °F 82% 29.96 in 10.0 mi SSW 11.5 mph - N/A   Overcast
4:56 PM 48.2 °F - 42.8 °F 82% 29.96 in 10.0 mi SSW 10.4 mph - N/A   Overcast
5:16 PM 48.2 °F - 42.8 °F 82% 29.95 in 10.0 mi SSW 11.5 mph - N/A   Overcast
5:36 PM 48.2 °F - 42.8 °F 82% 29.95 in 6.0 mi SSW 9.2 mph - N/A   Mostly Cloudy
5:56 PM 48.2 °F - 42.8 °F 82% 29.96 in 4.0 mi West 16.1 mph 23.0 mph 0.01 in   Overcast
6:16 PM 46.4 °F 40.7 °F 41.0 °F 81% 29.96 in 3.0 mi WSW 12.7 mph - N/A   Overcast
6:36 PM 46.4 °F 39.0 °F 41.0 °F 81% 29.95 in 4.0 mi WSW 19.6 mph 24.2 mph N/A   Overcast
6:56 PM 44.6 °F 37.8 °F 39.2 °F 81% 29.95 in 7.0 mi WSW 15.0 mph - N/A   Overcast
7:16 PM 44.6 °F 38.1 °F 39.2 °F 81% 29.95 in 5.0 mi WSW 13.8 mph 20.7 mph N/A   Overcast
7:36 PM 44.6 °F 38.1 °F 39.2 °F 81% 29.95 in 3.0 mi WSW 13.8 mph 21.9 mph N/A   Overcast
7:56 PM 44.6 °F 36.9 °F 39.2 °F 81% 29.96 in 5.0 mi WSW 18.4 mph 23.0 mph N/A   Overcast
8:16 PM 44.6 °F 36.9 °F 39.2 °F 81% 29.96 in 4.0 mi WSW 18.4 mph - N/A   Overcast
8:36 PM 44.6 °F - 39.2 °F 81% 29.96 in 8.0 mi Calm Calm - 0.02 in   Overcast
8:56 PM 44.6 °F - 39.2 °F 81% 29.96 in 5.0 mi Calm Calm - 0.03 in   Overcast
9:16 PM 44.6 °F 36.9 °F 39.2 °F 81% 29.95 in 8.0 mi SW 18.4 mph 25.3 mph N/A   Overcast
9:36 PM 44.6 °F 36.6 °F 39.2 °F 81% 29.95 in 8.0 mi SW 19.6 mph 25.3 mph N/A   Overcast
9:56 PM 44.6 °F - 39.2 °F 81% 29.95 in 8.0 mi Calm Calm - N/A   Overcast
10:16 PM 44.6 °F 40.2 °F 39.2 °F 81% 29.95 in 7.0 mi WSW 8.1 mph - 0.01 in   Overcast
10:36 PM 44.6 °F - 39.2 °F 81% 29.96 in 3.0 mi Calm Calm - 0.02 in   Overcast
10:56 PM 44.6 °F 38.1 °F 39.2 °F 81% 29.96 in 2.5 mi WSW 13.8 mph 25.3 mph 0.02 in   Overcast
11:16 PM 44.6 °F 36.1 °F 39.2 °F 81% 29.95 in 2.5 mi WSW 21.9 mph 25.3 mph N/A   Overcast
11:36 PM 44.6 °F 36.4 °F 39.2 °F 81% 29.96 in 5.0 mi WSW 20.7 mph 26.5 mph N/A   Overcast
11:56 PM 44.6 °F 36.9 °F 39.2 °F 81% 29.96 in 6.0 mi WSW 18.4 mph 28.8 mph N/A   Overcast